Temp
7 7 7 7 7 7 7 7 7 7 7 7 7 7 7 7 7 7 7 7 8 7 8 8 8 8 8 8 8 8 9 10 10 8 10 17 19 18 18 18 18 18 18 18 18 18 17 17 17 17 19 19 19 20 20 19 20 21 21 21 21 22 22 21 22 22 22 23 24 23 23 23 24 25 24 23 23 22 21 21 21 21 21 22 22 21 20 19
7 7 7 7 7 7 7 7 7 7 7 7 7 7 7 7 7 7 7 7 8 8 8 8 8 8 9 9 8 8 10 10 9 9 13 19 19 18 18 17 18 18 18 18 18 18 18 17 17 18 19 19 19 19 20 20 20 21 20 20 22 22 21 21 22 22 22 23 23 23 23 22 24 24 24 24 23 22 22 21 21 21 20 21 21 20 19 19
7 7 7 7 7 7 7 7 7 7 7 7 7 7 7 7 7 7 8 8 8 8 8 8 8 8 11 12 10 11 10 10 13 16 18 19 19 19 18 17 17 18 18 18 19 19 19 18 17 19 19 19 19 19 20 20 20 20 20 21 22 21 21 20 21 22 22 22 22 23 23 22 24 24 24 24 23 22 22 22 21 20 20 20 20 20 19 19
6 6 7 7 7 7 7 7 7 7 7 7 7 7 7 7 8 8 8 8 8 8 8 8 8 10 12 13 12 12 10 13 19 20 19 19 19 19 18 18 17 18 18 18 19 19 19 18 18 19 19 19 18 18 20 20 20 20 20 22 21 20 21 21 21 22 22 22 22 23 22 23 24 23 24 24 23 24 23 23 22 21 20 20 19 19 19 19
6 6 6 6 7 7 7 7 7 7 7 7 7 7 7 7 7 7 8 8 8 8 8 8 9 11 13 14 14 13 12 18 21 19 19 19 19 19 19 18 18 18 18 18 19 18 18 18 18 19 19 19 18 19 20 20 20 20 21 21 20 20 21 22 22 22 22 21 22 22 23 24 24 23 24 24 24 26 25 24 23 22 21 20 19 19 19 19
6 6 6 6 6 7 7 7 7 7 7 7 7 7 7 7 7 7 7 8 8 8 8 9 10 12 14 14 14 13 16 20 20 19 20 19 19 19 19 19 18 18 18 18 18 17 18 18 19 19 19 19 18 19 19 19 20 20 21 20 20 20 21 22 22 23 22 21 22 23 23 22 23 24 24 23 25 25 24 24 24 22 22 21 20 20 19 19
6 6 6 6 6 6 7 7 7 7 7 7 7 7 7 7 7 7 7 8 8 8 8 8 10 12 14 14 14 14 16 19 19 19 19 19 19 19 19 19 18 18 18 18 18 18 18 18 19 19 19 19 18 19 19 19 20 20 21 20 21 21 21 22 22 22 21 21 22 22 22 22 23 24 23 23 24 23 22 23 23 22 22 21 20 19 19 19
6 6 6 6 6 7 7 7 6 7 7 7 7 7 7 7 7 7 7 8 9 8 8 8 9 11 13 14 14 16 16 18 19 19 18 19 19 18 19 18 17 17 18 19 18 18 18 18 19 18 20 20 19 20 19 20 20 20 20 20 21 21 22 22 21 22 21 21 21 21 22 23 24 23 23 24 23 21 22 23 23 22 21 20 20 19 19 19
6 6 6 6 6 7 7 6 6 6 6 6 7 7 8 10 10 10 9 9 9 8 8 8 8 10 12 12 14 17 19 19 19 18 18 18 18 18 18 17 17 17 18 18 18 18 19 19 19 19 20 20 19 20 19 20 21 20 21 21 21 22 22 22 21 22 22 21 21 22 23 24 23 22 24 23 21 21 22 22 22 21 21 20 19 19 19 19
6 6 6 6 6 6 6 6 6 6 6 7 6 7 10 12 11 11 9 9 8 7 7 7 8 10 11 11 14 18 19 19 18 19 19 18 18 18 17 18 17 17 18 17 17 18 19 19 19 19 20 19 19 20 20 20 21 20 21 21 21 21 21 21 22 22 21 21 22 22 24 24 22 23 25 22 20 22 21 21 21 21 20 20 19 19 18 17
6 6 6 6 6 6 6 6 6 6 6 6 7 8 11 12 11 10 9 8 8 7 7 7 8 10 10 12 15 18 19 19 18 19 19 19 19 18 18 18 18 18 18 17 17 18 19 19 19 19 20 20 20 19 20 20 21 21 21 21 21 21 21 21 22 22 21 23 23 22 23 23 22 23 24 21 20 22 21 20 20 20 20 19 19 18 17 17
6 6 6 6 6 6 6 6 6 6 6 7 8 11 12 11 11 9 8 8 8 7 7 7 8 9 9 12 15 17 19 19 18 18 18 18 18 18 18 18 18 19 18 18 18 18 19 18 18 20 20 20 20 19 20 20 20 21 21 21 22 22 22 22 22 21 21 23 23 23 23 24 24 24 22 20 21 22 21 21 20 20 20 19 19 17 16 16
6 6 6 6 6 6 6 6 6 6 6 7 10 12 12 12 11 10 9 9 8 7 7 7 7 8 10 14 17 18 19 18 18 18 17 18 18 18 18 18 18 18 19 19 18 18 19 18 19 20 19 20 21 20 20 20 20 21 20 21 22 22 23 22 21 20 21 23 23 23 23 23 26 25 21 20 21 22 21 21 20 20 20 19 18 17 16 16
6 6 6 6 6 6 6 6 6 6 7 9 10 11 12 12 12 11 10 9 8 7 7 7 7 8 10 16 18 18 18 17 17 17 17 17 17 17 18 18 18 18 18 19 19 19 19 18 19 20 19 20 20 20 20 20 20 21 21 20 20 21 22 22 21 20 23 23 22 24 22 23 27 25 21 20 21 21 21 21 21 20 20 19 18 17 17 17
6 6 6 6 6 6 6 6 6 6 8 10 11 11 12 12 12 12 10 9 8 8 7 7 8 8 11 16 17 17 17 17 17 18 18 17 17 18 18 17 17 17 17 18 18 18 18 18 19 20 20 19 20 20 20 20 20 19 20 20 19 20 21 22 21 20 23 23 22 24 22 23 26 23 21 21 21 21 21 21 21 21 20 19 18 17 18 18
5 6 5 6 6 6 6 6 6 6 8 10 11 11 11 12 11 11 11 8 8 8 8 8 7 8 14 17 17 17 17 17 18 19 19 18 17 18 17 17 16 16 17 18 18 18 18 19 19 19 20 20 20 20 20 20 20 19 20 20 20 20 21 22 21 20 21 23 23 23 23 24 25 22 21 21 21 21 21 22 22 21 20 19 18 18 18 19
5 5 5 5 6 6 6 6 6 5 7 10 12 11 11 10 9 10 10 8 8 8 8 9 7 9 15 18 17 18 18 18 19 19 19 19 18 18 18 17 16 16 17 18 18 18 18 19 19 19 19 19 19 20 20 20 20 19 19 20 19 19 20 21 22 20 21 23 23 23 23 24 24 22 21 21 21 20 21 21 21 21 20 19 19 18 19 19
5 5 5 5 5 5 5 5 5 5 7 10 11 10 10 10 8 9 8 8 8 8 9 9 8 13 17 17 17 18 18 18 19 19 19 18 17 18 19 18 17 17 17 18 18 18 19 18 18 19 19 18 19 20 20 19 20 20 20 20 19 19 19 20 21 21 21 22 23 22 23 24 24 22 21 21 21 20 20 21 21 21 20 19 19 18 19 20
5 5 5 5 5 5 5 5 5 5 6 10 11 9 10 9 8 9 7 7 10 13 14 12 12 17 18 16 17 17 18 19 19 19 18 17 17 18 19 18 18 18 18 19 18 18 18 18 18 19 19 18 19 20 20 20 20 20 20 20 20 20 20 19 20 21 21 22 22 23 23 24 24 23 22 21 21 21 21 21 21 21 20 20 19 19 19 20
5 5 5 5 5 5 5 5 5 5 6 9 9 9 11 11 12 12 9 8 11 15 17 15 14 17 17 16 17 18 18 19 19 19 18 17 18 18 19 19 18 19 19 19 18 18 18 19 19 19 19 19 19 20 20 19 19 20 20 19 19 20 20 19 20 21 21 21 22 23 22 23 23 23 22 21 21 21 21 20 20 21 21 20 19 19 19 20
5 5 5 5 5 5 5 5 5 6 7 8 7 9 12 13 14 14 12 12 12 13 14 15 14 15 17 17 16 17 18 18 19 19 18 18 18 19 19 19 19 19 18 18 18 18 18 19 19 19 19 19 19 19 19 18 18 19 20 20 20 19 19 20 20 21 20 20 22 22 21 23 23 23 22 21 21 21 21 20 20 21 21 20 20 19 19 19
5 5 5 5 5 5 5 5 5 7 8 8 7 9 11 12 12 12 12 13 13 12 12 13 13 14 15 15 15 16 16 17 18 19 18 18 18 19 19 18 19 18 17 17 18 18 18 19 18 18 18 18 18 17 17 18 18 19 19 19 20 19 19 20 19 19 19 21 22 21 21 23 24 23 21 21 21 21 21 21 21 21 22 21 20 19 19 19
5 5 5 5 5 5 5 5 6 7 8 8 6 8 10 11 12 11 11 12 12 13 12 12 12 13 13 14 15 15 16 16 18 19 18 18 18 18 19 18 18 18 17 18 19 18 18 19 18 17 17 18 18 16 17 18 18 18 19 19 20 19 19 20 20 19 19 20 21 21 21 22 23 22 20 21 21 22 22 22 22 22 22 22 21 20 19 19
5 5 5 5 5 5 6 6 7 8 8 7 6 9 11 11 11 11 12 12 13 13 13 13 13 13 14 15 15 16 16 16 17 19 19 19 18 18 19 19 18 18 18 18 18 18 19 18 17 16 17 19 18 17 17 18 19 18 18 19 20 19 19 20 20 19 20 19 19 20 20 21 22 22 21 21 20 20 21 21 21 22 22 22 21 20 19 19
5 5 5 5 5 5 6 7 7 7 7 7 8 10 11 11 11 11 12 13 14 14 14 14 13 14 15 15 16 16 16 16 17 19 19 19 19 18 19 19 18 19 18 17 17 18 19 18 17 17 17 18 18 17 17 18 19 18 18 19 19 20 20 19 19 19 20 20 19 19 20 21 21 22 22 20 19 20 20 20 21 21 21 21 21 20 20 19
5 4 4 5 4 5 7 8 6 6 7 8 10 11 10 11 11 11 12 14 15 16 16 15 15 17 17 16 15 16 17 17 18 18 19 20 20 19 19 18 19 19 17 17 18 18 18 17 17 18 17 17 18 18 18 18 19 19 19 19 19 20 19 18 19 19 20 20 19 18 20 21 21 22 22 19 18 19 20 19 20 21 21 21 21 20 20 20
4 4 4 5 4 5 7 7 6 7 9 10 10 10 11 12 11 11 13 15 16 17 17 16 16 18 17 16 16 16 18 18 17 18 19 20 20 20 20 18 18 18 17 17 18 18 18 17 17 18 18 18 18 19 18 18 19 20 19 19 18 19 19 18 19 20 20 20 19 18 20 20 20 22 21 18 18 19 19 20 20 21 21 21 22 21 21 21
4 4 4 4 5 4 5 6 5 6 10 11 10 10 11 12 12 12 14 16 17 18 18 17 17 18 17 16 16 17 17 18 18 18 18 20 20 20 20 19 19 19 18 18 19 18 18 18 18 18 18 18 19 20 18 18 20 20 19 18 18 19 19 19 19 20 19 19 20 20 20 20 20 21 20 18 19 20 20 20 20 20 21 21 21 21 21 21
4 4 4 4 4 5 5 4 4 7 10 11 10 11 12 11 12 13 14 16 17 18 18 18 18 18 16 16 16 16 17 18 18 18 18 20 20 20 19 19 19 19 18 19 20 19 18 18 18 19 19 19 20 20 18 18 20 20 18 17 18 18 18 19 19 20 19 19 20 20 20 20 20 22 21 19 20 21 20 20 20 20 21 21 21 21 21 21
4 4 4 4 4 5 5 4 6 9 10 10 10 11 11 12 13 14 14 15 17 17 18 18 18 18 17 16 16 16 17 18 18 18 18 19 19 19 18 18 19 19 18 19 19 19 18 18 18 19 20 20 20 18 17 19 20 19 18 19 19 18 18 18 18 19 19 19 20 20 20 20 20 21 22 21 20 20 20 20 20 20 20 21 21 21 21 21
4 4 4 4 5 5 4 6 9 10 10 10 11 11 12 13 14 14 14 15 16 16 17 17 17 17 16 16 16 17 17 18 18 18 18 19 19 19 19 19 19 18 18 18 18 18 18 18 18 20 20 19 20 19 17 18 19 19 20 20 20 19 19 19 19 19 19 20 20 18 19 20 20 21 22 20 18 18 18 19 19 20 20 21 21 21 21 20
4 4 4 4 5 4 5 8 10 10 10 10 10 12 14 14 13 13 15 15 16 16 16 16 16 16 15 15 16 17 17 18 18 18 18 18 19 19 19 19 19 18 17 18 18 18 18 19 19 20 20 19 20 20 18 17 18 19 19 20 20 20 19 19 20 19 20 20 19 17 18 19 20 21 20 19 18 18 18 18 19 19 20 21 21 20 20 20
4 4 5 6 5 5 7 9 9 9 10 9 11 14 14 13 13 13 14 15 15 15 15 15 16 15 15 16 18 17 18 18 18 18 18 18 19 18 18 18 19 19 18 16 17 18 19 19 18 19 20 20 20 20 20 19 18 19 19 20 20 20 19 19 19 18 19 20 18 17 18 20 21 21 19 18 19 19 19 19 18 18 19 21 20 20 19 19
5 6 7 8 8 8 9 9 9 9 9 10 12 14 13 13 13 13 13 14 14 15 15 15 15 15 16 17 18 17 18 18 18 19 19 18 18 18 18 18 18 19 18 16 17 18 18 19 19 19 20 20 20 21 21 20 18 19 20 20 20 20 20 19 20 20 20 20 19 18 19 20 21 20 18 18 19 19 19 19 18 18 19 20 19 19 18 18
7 8 9 10 10 11 11 9 9 9 8 11 14 13 13 13 13 13 13 13 14 14 14 14 14 16 17 17 17 17 18 18 17 18 19 18 18 18 18 18 17 18 18 18 17 17 17 19 20 20 18 19 21 21 21 20 19 18 19 20 20 21 21 19 18 18 19 20 19 19 19 20 20 19 18 19 19 19 20 19 18 19 19 19 18 18 18 17
9 10 10 10 11 11 11 10 9 8 9 12 14 13 13 13 13 13 13 13 13 13 14 15 15 16 17 17 17 17 18 18 17 18 18 18 18 18 18 19 18 18 19 19 17 17 18 19 20 19 19 19 20 21 20 21 21 18 18 20 19 20 21 19 17 16 17 19 19 18 19 20 20 19 19 19 19 18 18 18 17 17 18 17 17 17 17 16
7 9 10 10 11 12 11 11 10 8 10 13 14 12 12 12 12 13 13 13 13 13 13 15 16 15 15 15 16 17 17 17 17 18 18 17 18 18 18 18 18 18 20 20 18 18 18 20 20 19 20 20 18 19 20 20 20 19 20 21 19 19 20 20 19 18 18 20 19 18 18 19 20 20 19 19 18 17 16 17 16 16 16 16 15 15 15 14
5 7 10 11 11 12 12 11 10 10 12 14 13 11 11 12 12 12 13 13 13 13 13 14 15 15 14 15 16 16 17 17 17 18 18 17 18 18 18 19 19 18 19 20 19 18 17 19 20 18 20 19 17 19 20 19 19 20 20 21 20 20 20 20 19 19 19 19 19 18 18 18 20 19 17 17 17 16 16 16 16 16 15 15 15 15 15 14
5 8 12 11 11 12 11 11 10 12 14 13 12 12 11 11 12 12 13 13 13 13 13 14 14 14 14 15 15 16 16 17 17 17 18 17 18 18 18 19 19 18 18 19 20 18 17 19 20 18 18 19 19 20 21 20 19 19 20 20 20 20 20 20 19 20 20 19 19 19 19 19 19 16 15 16 16 16 16 15 15 15 15 16 15 15 15 15
6 11 12 11 11 12 10 10 11 13 14 12 11 12 11 11 13 13 13 13 13 13 13 13 14 14 14 15 15 15 16 16 16 17 17 17 17 18 18 18 18 17 17 18 19 18 17 18 19 19 19 19 20 20 20 20 20 20 20 20 20 19 19 20 19 19 20 20 19 19 20 20 17 14 15 16 15 16 16 15 15 15 15 15 15 15 15 15
7 12 12 10 11 11 10 11 12 12 12 11 11 11 11 12 13 13 13 13 13 14 14 13 14 14 14 15 15 15 15 16 16 16 17 17 17 18 17 16 18 17 17 18 18 18 18 18 18 19 20 20 20 18 17 18 19 19 20 21 20 19 19 20 19 18 18 19 19 19 21 19 15 14 15 15 15 16 16 15 15 15 15 15 15 15 15 15
10 13 11 10 11 10 11 12 10 9 11 11 11 11 11 12 12 12 13 13 13 14 13 13 14 14 14 14 15 15 15 16 16 16 16 17 17 17 17 16 17 17 17 18 18 17 17 18 18 19 19 19 19 17 16 16 16 17 18 18 19 20 20 21 21 19 18 18 17 18 20 18 14 14 16 15 15 16 15 15 15 15 15 15 15 15 14 14
12 12 10 10 10 10 12 12 10 10 11 11 10 11 11 11 11 12 12 12 13 13 13 13 14 14 14 14 15 15 16 16 16 16 16 16 16 16 16 15 16 17 18 18 17 17 17 17 18 18 18 19 19 17 16 16 16 17 17 16 16 18 18 19 19 19 18 18 18 19 20 18 14 14 16 15 15 15 15 15 15 15 15 14 14 14 13 13
12 10 10 10 10 11 12 12 11 11 11 10 11 11 11 10 11 12 12 12 12 12 13 13 14 14 14 14 14 15 16 15 16 16 15 15 16 16 15 15 16 17 18 18 17 17 17 17 17 18 18 18 18 18 18 18 17 17 16 15 15 15 15 17 18 18 19 18 18 20 20 17 15 15 15 15 15 14 14 13 14 14 13 13 12 12 11 11
11 11 11 11 11 11 11 10 11 11 10 10 11 11 10 11 11 11 11 12 12 12 12 13 13 13 13 13 14 15 15 15 15 16 15 15 16 16 15 14 16 16 17 17 17 16 16 15 16 18 18 17 18 18 18 18 16 15 15 13 13 13 14 16 18 20 20 17 16 20 20 16 14 15 15 15 14 13 12 12 12 11 11 11 10 10 10 10
12 12 11 11 11 11 10 8 10 11 10 10 11 10 10 11 11 11 11 11 12 12 12 12 12 12 12 13 14 14 14 15 15 14 14 14 15 14 14 14 15 16 16 16 16 16 14 13 13 16 17 17 17 15 14 14 15 15 14 12 12 11 11 14 19 20 19 17 17 18 17 15 15 15 14 13 13 12 11 11 10 10 10 9 9 9 9 9
13 12 11 11 11 11 10 9 10 11 10 10 11 10 10 10 11 11 11 12 12 11 11 12 12 12 12 12 13 14 13 14 14 14 13 13 13 13 13 14 15 15 16 15 15 15 14 13 12 13 14 14 13 13 12 13 13 12 12 12 12 11 11 14 18 17 16 19 19 15 14 15 14 13 12 12 11 11 10 10 9 9 9 9 9 9 9 9
11 11 10 10 11 11 11 10 10 10 10 10 9 9 10 11 10 11 11 12 12 11 12 12 11 11 11 10 12 14 13 13 13 12 12 13 13 13 13 14 15 14 15 15 15 15 15 14 12 12 12 12 12 12 12 12 12 11 11 11 12 12 12 13 14 12 13 18 18 14 14 14 12 11 11 10 10 10 9 9 9 9 9 9 9 8 8 8
10 11 9 9 11 10 9 9 10 10 10 10 9 9 10 11 11 11 11 11 12 11 11 12 11 11 10 10 11 12 12 13 13 12 11 12 12 12 13 14 14 14 14 15 15 15 15 13 12 12 12 12 12 12 12 12 12 11 11 11 11 12 12 12 12 12 13 15 14 13 12 11 10 9 9 9 9 9 8 8 8 8 8 8 8 8 8 8
11 12 10 10 10 9 9 9 10 11 10 9 10 10 10 11 11 10 10 11 12 11 11 11 11 11 11 11 11 12 11 12 13 12 11 11 12 12 12 12 13 12 13 15 14 15 15 13 12 12 13 13 12 12 12 13 12 11 10 10 11 11 12 12 11 11 12 13 12 11 11 10 9 8 8 8 9 8 8 8 8 7 8 8 7 7 7 7
9 9 10 12 11 9 9 9 9 11 11 10 10 11 10 11 10 9 10 11 11 12 12 11 11 11 11 11 11 12 11 11 12 12 11 11 11 11 11 12 11 11 12 14 14 15 15 13 11 13 14 13 12 12 12 12 12 12 10 10 10 10 11 11 10 10 11 12 12 12 12 10 8 8 8 8 8 7 7 7 7 7 7 7 7 7 6 6
8 8 9 12 11 8 8 9 8 10 11 9 9 9 10 11 9 9 11 11 11 12 11 11 11 11 12 12 12 11 11 10 11 11 11 11 11 10 11 11 10 10 11 13 13 13 14 13 13 14 15 13 12 12 12 13 14 13 10 9 9 10 10 11 10 9 9 10 12 12 11 9 8 8 8 7 7 7 7 6 6 6 6 6 6 6 6 6
Height
803 802 801 801 800 800 799 798 798 797 796 795 794 793 792 792 791 790 789 789 788 787 786 785 784 783 782 780 779 777 775 774 773 773 772 766 763 764 764 765 765 766 768 770 771 772 774 777 778 779 779 781 783 783 784 783 784 785 790 796 792 789 790 788 786 785 785 782 778 777 777 779 775 769 767 766 768 771 772 771 769 767 765 762 762 763 766 771
802 802 801 801 800 800 799 798 797 796 795 794 793 792 791 791 790 789 788 788 787 786 785 784 783 781 780 779 777 776 774 772 771 770 767 763 763 763 763 765 765 766 767 769 770 770 773 776 778 778 779 782 784 784 784 784 784 787 794 795 787 786 787 784 783 783 783 781 778 777 777 778 775 772 769 770 773 772 773 774 771 771 769 765 765 766 768 771
801 801 801 800 800 799 799 798 797 796 795 794 793 792 791 790 789 789 787 787 786 785 784 783 782 780 779 778 776 775 773 772 768 765 764 763 763 762 763 764 765 766 768 768 769 770 771 774 776 778 780 783 785 785 785 785 785 787 792 790 785 786 785 784 784 782 781 780 779 777 776 777 773 771 769 770 774 772 773 773 772 774 772 769 768 768 770 772
800 800 799 799 799 799 798 798 797 796 794 793 792 791 791 789 789 787 786 786 785 784 783 782 781 779 778 777 776 774 773 770 766 763 763 763 762 762 762 764 765 767 768 769 770 771 772 774 776 777 780 784 787 786 786 785 785 788 787 785 785 787 785 782 782 780 779 779 779 777 776 774 770 770 769 770 774 772 769 767 768 769 769 769 769 770 771 773
800 799 798 798 798 798 797 797 796 795 794 792 791 790 789 788 787 786 785 784 783 783 782 781 780 778 778 776 776 774 772 771 766 763 763 762 762 761 762 763 766 767 769 770 771 772 773 775 776 778 780 785 788 787 787 784 784 786 783 782 785 787 785 780 779 778 777 778 778 777 775 772 769 769 767 769 771 766 762 760 761 764 765 765 766 769 771 774
800 799 798 797 797 797 796 796 795 794 793 791 790 789 788 787 786 785 784 783 782 781 780 780 779 778 777 776 775 773 773 771 765 763 763 762 761 761 762 763 766 768 769 770 771 772 774 776 777 779 781 784 787 786 786 784 784 785 781 782 784 784 784 779 776 776 776 779 778 776 774 772 770 768 764 766 766 760 757 756 757 760 763 764 765 768 771 774
800 799 797 796 796 796 795 795 794 793 792 791 789 788 787 786 785 784 783 782 781 780 780 779 778 777 776 776 775 774 775 770 763 763 762 761 761 761 762 764 766 768 769 770 771 773 774 776 778 780 781 784 787 785 784 784 783 784 783 783 782 781 781 777 775 775 776 778 775 774 774 772 771 768 764 763 760 758 756 754 755 758 761 765 767 769 773 776
800 798 797 796 796 795 795 794 793 793 791 790 789 787 786 785 784 783 782 782 781 780 779 778 778 777 776 776 775 774 774 768 763 763 761 760 761 762 763 765 767 768 769 770 770 772 773 776 777 779 781 782 784 783 784 784 784 784 784 783 780 779 778 775 775 775 775 775 773 774 773 770 769 767 765 762 759 758 756 755 756 759 762 766 769 772 776 779
799 798 797 796 795 794 793 793 792 791 790 789 788 786 785 784 783 782 781 781 780 779 778 778 777 776 776 776 776 773 768 764 763 762 760 760 761 762 764 765 767 769 769 770 770 771 772 775 776 776 778 780 781 781 782 785 784 781 781 781 778 777 776 775 775 772 773 774 772 773 771 767 766 766 764 760 760 758 756 757 758 761 764 768 772 775 778 781
799 798 797 795 794 793 792 791 791 790 789 788 786 785 784 782 782 781 780 779 779 778 777 777 776 776 777 775 776 773 765 762 764 762 761 761 761 763 764 765 767 768 769 771 771 771 772 773 774 774 775 778 780 781 782 782 780 778 778 779 777 777 776 775 773 771 773 772 770 771 770 766 766 767 764 761 760 758 758 761 761 763 767 770 774 777 779 781
798 797 796 795 794 792 791 790 789 789 788 787 785 784 782 781 780 779 779 778 777 777 776 776 776 776 776 775 776 772 763 762 763 762 763 762 763 764 765 766 767 768 769 770 771 771 772 772 773 774 775 777 779 782 781 778 777 776 777 778 777 777 776 775 773 771 772 770 767 769 769 768 768 767 763 761 760 758 760 763 764 766 768 772 775 777 780 782
797 797 796 794 793 792 791 789 788 788 786 785 784 782 781 780 779 778 777 776 776 776 775 776 776 775 776 776 773 766 760 762 762 762 763 763 764 765 766 767 767 767 768 770 771 771 772 773 773 775 776 775 778 782 779 776 776 776 777 779 777 775 774 773 772 771 772 768 764 767 771 769 766 765 763 762 760 758 760 763 765 768 769 772 775 778 781 782
796 795 794 794 792 791 790 789 787 786 785 784 783 781 780 779 778 776 775 775 774 774 774 775 775 775 776 772 764 760 760 761 761 761 762 762 764 765 766 766 767 768 768 769 770 771 772 773 773 774 774 775 778 778 776 775 777 776 778 780 779 779 776 772 773 773 771 768 763 767 777 772 761 760 763 762 760 760 762 763 766 768 770 773 775 778 780 779
795 794 793 792 791 790 789 788 787 785 784 783 781 780 778 777 776 774 773 772 772 773 773 774 774 775 776 767 757 758 759 759 759 759 760 761 763 764 764 765 766 768 768 769 770 770 771 772 774 774 774 775 775 774 776 778 779 779 779 782 786 787 779 771 773 774 769 766 763 767 778 772 759 759 762 762 761 762 763 763 765 767 770 772 775 777 777 776
794 793 792 791 790 789 787 786 785 784 783 781 780 778 777 775 773 772 771 770 771 771 772 774 774 774 774 764 755 756 756 757 757 756 757 759 760 762 763 764 766 767 768 769 770 770 771 772 773 774 775 774 773 776 780 780 781 783 783 786 791 789 782 773 772 775 771 767 764 767 776 770 760 762 762 762 762 764 765 763 764 766 769 772 774 776 774 773
793 792 791 790 789 787 786 785 784 783 781 780 779 777 775 774 772 771 770 770 771 771 772 773 773 774 771 760 755 755 755 755 754 754 755 756 758 760 762 764 766 767 768 769 770 770 770 772 773 774 774 774 776 779 782 783 785 787 786 788 790 788 785 778 773 775 773 769 766 768 773 768 762 763 762 762 763 765 766 765 764 765 768 771 772 774 772 772
792 791 790 789 787 786 785 784 783 782 780 779 777 775 774 773 772 771 770 771 771 771 772 772 773 774 765 756 755 755 754 754 753 754 754 755 757 759 761 764 766 767 768 769 770 771 771 773 774 775 776 779 780 781 786 790 789 789 788 788 791 791 789 783 775 774 772 770 770 771 772 767 762 763 763 762 762 766 767 765 765 765 768 770 771 772 770 769
791 790 789 788 786 785 784 783 782 781 779 778 776 775 774 773 772 772 771 771 772 773 773 772 773 770 760 755 755 754 753 753 753 753 754 754 757 759 760 762 765 767 769 770 770 771 772 774 776 777 780 783 782 782 787 790 786 787 788 787 790 792 792 788 780 774 772 772 772 773 772 765 761 763 764 762 762 766 766 765 765 766 768 770 770 771 769 766
790 789 788 787 785 784 783 782 781 780 778 777 775 775 774 773 773 772 772 773 771 768 765 766 766 760 756 756 754 753 752 752 752 752 752 754 756 758 759 760 764 766 769 771 772 772 772 775 778 779 780 782 781 780 781 783 782 783 786 787 788 789 789 789 783 775 774 775 772 771 770 765 762 762 763 762 761 764 766 766 766 766 767 769 770 770 768 765
789 788 787 786 784 783 782 781 780 779 777 776 776 775 773 773 771 770 772 771 766 759 756 759 759 755 754 754 752 752 752 752 751 751 752 753 754 757 759 761 763 766 768 771 773 773 773 777 778 777 778 779 778 777 777 780 782 782 785 787 787 788 788 787 783 774 774 778 772 769 771 767 763 761 761 761 762 764 766 767 766 764 765 767 769 769 767 765
788 787 786 785 783 783 781 780 779 777 777 776 776 775 773 771 770 770 769 764 758 757 756 755 756 753 750 751 753 753 754 753 751 751 751 752 753 757 760 762 766 769 772 773 773 774 775 777 777 774 775 775 775 777 779 782 784 784 784 784 785 788 788 785 781 775 775 779 772 769 772 766 760 759 760 761 763 764 763 764 764 761 762 765 768 769 768 765
787 786 785 784 783 782 780 779 777 775 776 775 776 775 773 772 772 772 771 764 757 755 755 754 755 752 749 752 754 755 758 756 751 749 750 752 753 757 760 764 767 770 773 774 774 777 779 777 774 774 774 775 778 782 782 783 784 785 785 786 785 786 787 783 780 778 777 777 772 770 772 764 756 758 761 761 760 757 755 756 757 756 757 761 765 768 768 767
786 785 784 783 782 781 779 778 776 775 775 775 776 775 773 772 771 771 772 770 760 753 753 754 754 751 750 752 751 754 758 756 752 748 747 750 753 755 758 763 767 770 773 772 772 779 780 773 771 774 775 775 780 784 783 783 785 785 785 785 784 786 788 784 780 780 777 776 774 772 773 765 756 759 761 758 755 752 752 752 752 752 752 754 759 763 764 765
785 784 783 782 781 779 777 776 775 774 775 775 774 773 772 772 771 771 771 769 762 753 750 750 750 749 748 747 747 750 752 751 749 745 742 746 751 754 755 759 766 769 769 769 771 775 774 771 771 775 775 773 779 785 784 783 783 785 785 783 782 784 785 780 779 780 776 776 776 775 776 767 759 761 759 756 757 755 754 754 753 751 750 751 756 759 760 761
784 783 782 781 780 778 776 775 774 775 775 774 773 771 772 771 770 771 770 768 762 753 748 748 748 746 742 744 746 746 748 747 743 740 740 741 745 751 754 756 761 766 768 770 774 773 770 770 771 775 777 776 778 782 782 781 781 784 782 777 776 776 777 779 781 782 780 778 776 777 778 768 760 761 759 760 762 757 755 756 753 750 750 751 754 756 757 759
783 782 781 780 779 776 774 774 774 775 774 773 772 771 771 770 769 770 770 770 761 749 746 747 746 743 740 744 746 746 749 745 737 737 739 738 739 745 753 757 757 761 766 769 772 770 768 770 770 771 775 777 778 778 778 779 781 783 775 769 772 772 775 781 782 783 782 779 776 777 778 772 763 755 756 764 766 758 755 755 751 748 748 748 749 751 752 755
782 781 780 780 779 777 775 775 775 775 773 771 771 771 771 769 769 769 769 770 760 746 745 747 745 741 740 743 744 746 749 743 737 738 738 738 739 740 749 757 758 760 764 768 772 769 766 770 772 771 773 777 777 775 775 775 778 777 769 768 772 773 777 781 780 779 778 775 776 776 775 777 771 756 756 766 766 759 755 752 749 747 745 744 744 746 747 750
781 780 779 779 778 778 777 776 775 774 771 770 770 771 769 768 768 769 770 770 757 743 743 745 742 740 740 743 744 744 744 740 740 741 737 738 740 740 748 752 753 757 759 763 769 766 763 768 770 769 772 775 771 766 769 772 772 768 767 771 771 771 775 775 776 778 779 780 777 772 774 779 771 756 757 765 762 756 753 749 747 745 743 743 743 743 745 747
780 779 778 777 776 776 776 776 774 771 769 769 770 769 768 768 767 768 772 769 753 742 742 741 740 741 743 746 746 744 742 740 741 740 737 739 740 740 747 749 749 756 757 757 761 762 762 763 761 763 768 767 762 761 765 767 766 764 767 772 770 772 775 775 777 776 782 786 776 769 774 776 767 752 751 759 756 751 749 746 745 744 743 743 742 743 745 748
778 777 776 776 775 774 774 773 771 768 768 769 769 768 767 768 768 772 775 766 753 746 743 741 742 744 746 748 747 744 744 741 739 740 739 740 740 741 745 747 749 756 759 758 759 760 760 760 760 760 760 757 756 761 765 763 762 764 766 768 770 775 776 777 778 776 782 783 771 768 771 772 771 753 743 751 753 751 749 746 744 743 743 743 742 745 747 749
776 775 775 774 774 773 773 771 767 766 768 768 768 768 767 768 772 777 773 761 755 751 745 745 746 745 748 750 747 744 744 743 739 741 742 742 743 744 746 749 752 759 764 763 762 763 761 761 760 754 752 755 755 760 766 764 762 765 765 766 771 776 776 778 778 779 784 779 771 775 773 774 773 753 743 753 756 754 753 750 747 744 743 744 744 746 747 750
774 773 772 772 772 772 771 768 765 766 767 767 767 766 767 771 775 775 767 757 757 755 751 752 750 747 750 751 747 743 741 742 740 740 742 743 744 746 746 749 754 762 770 768 765 765 762 759 757 752 750 752 754 759 766 767 766 767 767 770 775 779 782 784 780 782 782 772 773 781 777 775 766 749 749 757 755 753 753 751 749 746 744 743 744 746 748 750
771 770 768 768 768 768 767 765 766 766 765 766 766 764 768 775 775 771 766 761 759 757 755 755 752 750 752 747 742 741 739 740 740 739 741 743 745 747 747 748 748 753 764 770 768 767 763 758 756 757 752 747 750 757 760 763 766 766 766 769 773 778 790 793 788 789 783 770 773 780 776 771 758 749 755 758 753 752 750 748 747 747 745 743 744 747 749 752
768 766 764 764 764 763 763 765 765 765 766 766 765 766 771 775 772 769 769 766 762 759 757 757 755 750 748 745 741 740 740 740 739 738 741 745 749 751 750 750 749 748 757 768 770 768 768 764 754 752 750 744 746 747 746 753 762 762 759 761 765 767 775 782 779 777 774 768 773 778 773 765 754 753 757 753 750 749 746 746 746 745 745 744 747 751 753 755
764 763 762 761 761 761 761 763 764 765 766 764 764 769 771 771 772 772 770 767 764 762 759 757 756 750 745 745 744 741 739 740 740 740 741 744 747 750 748 748 750 751 754 764 768 767 770 763 746 744 747 743 742 740 740 749 759 763 760 760 764 755 755 772 780 777 774 770 772 775 769 760 754 755 755 750 750 749 746 746 746 746 745 747 751 753 754 757
762 761 760 760 760 760 760 761 763 764 765 764 765 770 770 768 770 772 768 766 766 766 762 756 753 751 749 748 747 743 739 740 742 741 743 745 744 746 747 744 746 748 748 756 765 766 767 759 744 744 746 742 741 740 740 744 751 762 764 758 758 750 748 768 785 788 785 776 773 776 768 758 755 756 753 750 753 755 753 753 754 753 752 754 757 757 758 759
761 760 760 760 759 760 760 760 762 764 764 763 764 770 774 770 769 769 766 765 766 766 766 760 754 755 758 755 750 746 741 740 742 742 744 747 744 743 744 742 743 743 740 745 755 759 760 755 745 744 743 741 743 742 740 741 744 755 758 749 750 754 752 760 773 782 784 776 773 777 773 764 760 758 756 756 759 763 763 760 760 760 759 760 761 761 762 763
762 761 760 760 760 760 761 760 762 763 762 764 767 773 777 773 769 769 766 766 766 765 766 765 758 757 761 760 754 749 744 743 744 743 744 747 744 739 740 740 739 739 737 739 747 753 758 756 748 745 745 743 744 743 744 745 743 746 746 741 746 756 757 761 769 774 777 779 776 775 777 771 761 760 763 764 766 769 768 766 764 764 763 763 763 764 765 765
762 761 761 762 761 761 762 762 763 763 762 766 770 772 775 772 769 768 766 765 767 767 766 765 762 760 760 759 756 752 748 746 746 745 745 748 745 739 738 739 738 740 740 738 744 750 756 758 753 747 746 745 743 743 745 747 746 744 744 744 747 751 753 758 763 762 765 776 778 773 770 764 761 769 774 771 770 771 771 771 770 769 767 765 764 765 765 765
763 761 762 763 762 762 763 763 763 762 763 770 773 772 773 771 767 765 764 764 765 765 765 765 764 763 760 758 757 754 751 748 748 747 745 746 745 740 740 740 739 743 743 740 743 748 753 759 757 747 743 745 745 745 746 747 746 745 746 748 750 753 755 756 760 763 761 767 777 776 765 760 769 778 776 772 772 770 771 773 773 772 770 768 766 764 763 763
762 761 763 764 763 764 764 763 766 769 769 773 775 773 773 769 766 765 763 764 764 762 763 764 763 763 761 758 757 755 752 748 748 748 746 744 744 743 742 742 740 741 744 744 745 747 750 756 758 751 746 747 747 748 750 749 747 747 745 744 746 751 754 755 763 769 765 762 771 772 761 761 775 777 772 773 772 768 770 772 773 774 771 770 768 765 764 765
761 762 765 764 764 765 764 765 773 776 772 771 773 772 771 768 768 767 764 764 764 762 762 762 761 762 761 758 756 755 753 750 747 748 747 745 745 743 741 741 740 739 741 744 745 746 748 752 755 754 751 750 749 751 754 753 752 751 749 749 749 748 746 749 755 763 767 768 770 768 761 765 777 776 770 772 771 769 771 771 771 774 772 772 771 769 768 769
761 764 765 765 765 765 765 768 774 774 771 772 773 772 772 771 770 768 766 765 764 763 763 762 760 760 759 758 757 753 752 750 748 747 748 746 745 743 741 741 742 740 739 742 745 746 748 752 756 756 753 749 745 748 753 753 752 752 754 758 759 755 752 750 750 754 761 767 767 764 763 769 776 774 770 772 772 771 773 772 772 773 773 774 774 774 774 774
762 765 766 766 766 766 767 769 772 773 773 774 772 771 772 773 771 769 768 767 765 765 765 762 760 760 759 759 757 753 752 752 749 746 748 748 744 741 742 742 741 739 738 740 743 746 750 754 756 758 760 759 755 753 751 748 752 757 761 764 764 764 762 756 754 754 756 764 765 756 759 771 776 773 771 772 773 774 776 777 776 776 777 778 779 780 780 780
762 765 767 767 766 767 769 772 772 773 776 776 774 773 773 772 770 769 769 768 766 766 766 763 761 762 761 760 757 754 751 752 752 748 748 748 744 742 744 743 741 739 739 739 740 745 754 761 759 756 760 764 764 762 759 756 759 762 766 770 771 773 769 760 754 751 753 768 769 753 757 775 778 772 772 774 775 779 782 782 782 783 784 785 785 785 784 784
760 764 768 768 768 769 772 776 774 771 775 777 775 775 776 773 770 769 769 768 766 766 767 765 763 763 763 760 757 756 755 753 753 752 751 751 748 747 746 744 742 741 740 740 740 746 760 770 769 761 757 759 761 766 770 770 768 768 771 775 778 782 781 767 752 747 753 764 767 761 766 776 777 775 778 780 781 784 787 787 788 789 790 789 789 789 788 788
759 763 767 768 769 770 773 775 774 773 776 776 775 776 777 774 772 770 768 767 767 768 768 767 766 766 767 765 759 757 759 756 753 755 756 756 754 752 749 746 744 743 743 742 743 749 761 771 774 772 769 769 771 773 775 775 777 781 783 781 779 781 780 767 757 761 761 755 759 771 773 773 780 785 785 786 788 789 792 793 793 794 794 793 793 792 791 791
761 764 768 767 767 770 772 773 774 775 776 777 778 779 776 774 774 771 769 768 767 767 766 766 768 768 770 771 764 757 759 758 758 761 761 758 757 755 754 751 746 745 747 746 744 749 758 768 775 777 776 776 776 775 775 777 782 787 786 784 783 781 778 773 774 781 774 757 759 773 776 778 789 794 793 794 794 795 798 798 797 797 797 796 795 795 795 795
763 765 769 768 768 773 776 776 775 774 775 777 778 779 777 774 774 773 772 770 767 768 767 766 769 769 770 772 767 762 763 761 760 766 766 763 762 760 761 759 751 750 751 749 748 749 756 769 777 776 776 777 777 776 775 778 783 786 788 788 785 782 780 779 781 783 777 769 772 779 784 792 799 800 800 801 800 800 801 800 800 801 800 799 799 798 799 799
761 762 766 768 770 776 778 778 775 771 774 778 776 775 777 775 774 775 774 772 768 769 769 769 771 771 769 769 766 764 768 766 763 767 768 767 766 765 767 766 762 761 758 753 752 749 753 769 778 774 774 777 779 779 776 776 780 787 792 792 788 785 783 782 786 787 782 779 783 786 791 799 804 804 805 804 802 803 804 804 805 805 804 803 802 802 803 803
761 761 762 763 769 777 777 778 779 773 773 778 776 775 776 774 777 778 773 770 769 769 768 769 772 771 769 769 767 766 769 769 768 768 767 768 769 768 768 768 770 773 765 756 754 750 753 769 778 772 771 776 781 781 780 779 778 783 793 799 796 793 790 789 793 795 790 785 785 786 789 799 806 808 807 807 806 807 808 809 809 809 808 806 805 806 807 806
761 762 761 760 768 779 779 779 781 775 774 780 780 778 777 774 777 778 770 768 769 767 767 770 770 768 767 766 767 767 768 769 768 767 767 768 771 771 768 767 774 779 771 760 759 758 756 763 768 766 767 776 782 781 780 778 773 779 797 807 803 799 796 794 795 798 799 793 787 786 794 803 808 808 809 811 811 811 812 813 813 812 811 810 809 810 810 809
Wind_Speed
10 10 10 10 10 10 10 10 10 10 10 9 9 9 9 9 9 10 10 10 11 11 12 12 13 13 13 13 14 14 16 18 16 11 7 5 6 4 6 3 11 15 16 19 21 17 12 9 8 8 6 4 0 2 2 1 1 2 2 2 4 3 2 4 4 2 0 4 6 8 7 7 10 8 2 1 4 5 3 2 1 2 3 3 8 17 24 23
10 10 11 11 11 11 11 10 10 10 10 10 10 9 9 9 9 10 10 11 11 11 12 12 12 13 13 13 13 15 17 18 15 11 6 4 9 4 3 5 13 17 19 22 22 18 12 7 7 7 4 2 0 1 2 0 1 2 2 3 4 2 1 3 2 1 1 6 9 8 4 4 8 6 1 2 1 3 3 2 2 3 4 6 12 19 22 23
11 11 11 11 11 11 11 11 11 11 11 10 10 10 10 10 10 10 10 11 11 11 12 12 12 13 13 12 12 15 16 13 8 4 1 8 12 5 5 11 17 19 17 20 22 18 15 14 13 8 3 2 1 1 2 2 2 2 2 5 3 2 1 2 2 3 3 5 8 9 5 4 6 3 2 3 3 6 6 5 6 6 7 9 13 18 21 22
11 11 11 12 12 12 12 12 11 11 11 11 11 10 10 10 10 10 10 10 11 11 11 12 13 13 12 11 11 13 12 5 1 1 2 9 14 4 9 14 19 18 14 16 16 14 16 18 11 4 3 3 1 1 4 2 2 3 3 3 4 2 1 2 4 6 5 3 4 8 8 7 4 1 3 3 3 5 7 9 8 8 12 13 14 16 19 20
11 12 12 12 12 12 12 12 12 12 11 11 11 10 10 10 9 9 9 9 10 10 11 12 13 13 11 10 9 11 8 0 1 3 6 12 14 1 11 15 22 18 12 14 13 13 16 14 7 3 2 3 3 3 4 3 2 3 4 1 4 1 4 3 4 6 4 2 4 8 8 8 5 4 5 5 7 4 2 9 10 9 14 17 17 17 17 18
12 12 12 12 12 12 13 13 13 12 12 11 11 11 11 10 10 10 9 10 10 10 11 11 13 13 10 8 7 7 4 1 2 7 11 13 9 5 13 16 23 16 10 15 14 14 13 7 6 5 2 3 5 5 3 3 2 4 4 1 2 3 4 4 5 5 2 3 6 6 5 6 7 8 4 7 9 4 1 6 12 11 14 16 17 18 17 18
12 12 12 13 13 13 13 13 13 13 13 12 12 12 11 11 11 10 10 10 10 10 11 11 13 12 9 8 4 3 2 4 7 9 12 9 2 11 15 18 23 14 10 16 14 10 9 7 6 4 4 3 3 4 4 4 4 7 4 1 2 3 4 6 6 6 3 5 7 5 4 6 7 7 3 4 6 3 2 6 11 12 14 15 15 16 16 16
12 12 12 13 13 13 13 13 13 13 13 12 12 12 12 12 11 11 10 10 9 10 10 10 11 10 8 6 2 2 1 4 7 9 7 2 8 16 18 20 21 13 12 17 13 9 9 9 7 4 4 3 4 6 4 5 6 9 6 1 3 3 5 6 5 7 6 6 6 4 5 6 7 4 4 5 2 3 4 7 11 13 14 15 15 14 14 12
13 13 13 13 13 13 13 13 13 13 13 13 13 12 12 12 11 11 9 10 9 8 9 9 9 8 6 4 1 2 2 1 7 7 6 3 14 20 18 19 20 14 12 14 13 13 8 7 6 4 4 2 5 8 5 6 5 5 6 4 6 5 5 5 6 7 5 3 3 4 7 7 4 2 4 3 2 6 7 9 12 13 15 14 12 12 12 12
13 13 14 14 13 13 13 14 14 14 14 13 13 13 13 12 12 12 10 10 9 8 8 7 8 6 4 2 1 2 2 0 5 10 10 4 17 23 16 15 19 14 10 9 10 11 5 5 6 3 3 3 5 6 4 6 2 2 4 4 7 5 4 4 6 6 3 3 5 6 8 6 2 1 3 1 5 8 10 11 12 13 14 13 11 11 11 11
13 13 14 14 14 14 14 14 14 14 14 14 14 14 15 14 13 13 12 11 9 9 7 5 7 4 2 2 1 2 2 2 3 7 9 7 14 20 12 10 16 14 11 7 7 9 3 4 7 2 1 4 5 4 2 3 1 1 2 3 4 3 4 4 6 6 2 4 6 6 5 4 1 2 2 3 8 9 11 12 12 12 12 13 12 10 10 11
13 14 14 14 14 14 15 15 15 15 15 15 15 15 15 14 15 15 14 13 10 8 5 3 3 1 3 0 3 6 4 4 3 2 4 6 9 11 5 5 10 11 11 6 6 11 7 5 7 2 0 4 5 3 2 2 1 2 1 4 4 3 4 3 4 3 1 3 3 5 4 3 4 3 1 4 9 9 11 12 11 12 12 12 11 9 9 10
14 14 14 14 14 14 15 15 15 16 15 15 16 16 16 16 17 17 15 13 10 7 3 1 1 2 3 2 4 5 5 6 6 6 8 7 6 6 7 7 9 10 10 6 5 9 10 5 4 2 1 3 3 1 2 1 2 2 1 2 3 3 3 0 1 2 2 3 3 4 4 2 5 3 0 5 9 10 11 11 11 11 11 11 9 9 9 9
15 15 15 15 15 15 15 15 16 16 16 16 16 16 17 18 17 16 14 11 8 5 3 3 3 3 2 5 6 5 7 10 12 14 15 15 11 9 8 9 10 11 10 7 4 3 9 8 2 2 2 1 1 1 1 1 1 1 1 1 1 2 2 2 1 2 2 0 2 5 4 3 5 4 1 7 9 10 10 11 12 11 11 10 8 9 10 11
15 15 16 15 15 15 15 16 16 16 17 16 16 18 18 16 14 12 9 5 2 4 6 5 4 3 1 6 6 5 6 8 11 14 14 15 13 6 8 12 11 12 10 8 4 2 6 9 3 3 2 0 1 1 1 1 2 1 1 2 1 1 2 4 1 1 2 2 1 4 4 3 4 4 2 8 8 9 9 10 12 12 13 10 8 9 10 12
16 16 16 16 15 16 16 16 16 16 17 17 17 19 15 11 8 7 3 2 4 7 8 5 3 2 1 3 1 2 4 4 4 4 4 10 14 7 8 13 9 10 8 6 5 2 6 8 2 1 1 1 1 1 1 1 1 1 2 2 0 1 1 2 1 2 2 2 3 0 2 3 2 2 2 8 8 9 8 9 12 13 13 10 9 8 8 10
15 16 16 16 16 16 16 16 16 17 17 17 19 16 8 5 6 5 4 7 8 9 8 3 3 2 2 1 2 3 3 2 2 2 1 5 12 10 11 9 6 7 6 2 5 3 4 5 1 1 0 0 1 1 2 3 3 1 1 2 1 1 1 2 1 1 4 3 3 3 3 6 4 2 3 8 9 9 10 11 12 13 12 10 10 9 8 9
15 16 16 16 16 16 17 17 17 18 17 17 18 11 3 4 5 4 7 9 9 8 5 3 3 2 2 2 2 1 1 3 5 5 3 3 11 13 10 7 6 8 5 3 3 3 2 1 0 2 1 1 2 3 4 3 2 2 2 1 1 1 1 2 2 1 5 5 4 4 4 7 5 2 4 8 9 10 11 11 11 12 12 11 11 11 9 10
16 16 16 17 16 16 17 17 17 17 17 17 12 4 2 4 4 4 5 5 4 3 1 1 3 1 1 2 3 3 4 7 8 6 3 6 11 11 7 8 9 7 5 3 2 2 2 2 2 4 4 3 4 5 5 3 2 3 2 1 2 2 2 1 4 4 4 6 7 6 5 6 5 3 5 7 10 11 10 9 9 11 13 12 11 11 10 12
16 17 17 17 17 17 17 17 17 17 18 16 8 1 1 1 1 1 1 2 4 3 2 3 6 3 3 3 2 4 5 5 4 1 6 9 13 11 5 5 5 3 3 3 3 1 2 4 4 5 5 5 5 6 5 3 3 2 1 2 3 3 3 1 5 6 1 4 7 4 4 7 7 5 6 7 9 10 11 11 12 12 13 13 12 12 13 13
17 17 17 17 17 17 18 17 17 18 16 9 4 1 1 0 1 1 2 5 7 7 8 7 7 8 7 1 3 5 4 3 2 3 6 10 14 11 3 2 4 3 1 1 3 2 2 5 4 4 6 5 4 5 4 4 3 2 3 4 4 3 3 3 7 7 1 4 5 2 4 8 9 6 5 6 8 11 14 14 14 16 15 13 13 13 13 13
17 17 17 17 17 18 18 17 18 18 9 1 1 2 1 0 0 2 2 5 6 7 10 7 5 11 8 3 4 2 2 3 5 4 7 10 9 7 4 3 5 4 1 2 3 3 3 5 4 5 5 4 4 4 5 4 3 2 2 4 5 2 1 4 5 4 2 4 4 2 4 9 10 6 4 7 10 12 14 16 16 17 16 14 15 14 13 13
17 17 17 17 17 18 18 17 18 12 2 1 6 4 1 2 3 4 2 4 6 3 6 6 5 9 5 3 7 8 4 6 4 4 11 12 5 4 7 6 5 4 3 5 5 4 3 4 4 6 6 6 4 3 5 3 2 3 3 4 4 1 0 4 2 0 2 4 5 5 5 8 9 4 4 9 11 9 10 14 15 15 16 15 16 16 16 17
17 16 17 17 18 18 17 17 14 3 1 10 10 3 2 3 5 2 3 2 4 3 3 6 5 6 5 3 9 13 6 5 4 3 12 15 5 4 7 6 6 5 5 7 7 6 4 0 4 6 5 6 4 3 5 3 3 3 5 6 5 2 5 6 2 2 4 4 4 5 6 6 5 2 3 4 6 9 7 9 14 15 14 13 13 16 17 19
17 16 17 17 17 18 17 14 6 1 8 12 4 4 1 6 6 2 3 2 2 3 2 4 3 4 5 3 9 11 4 4 7 4 11 15 9 6 5 3 4 7 7 7 5 6 5 3 6 6 4 5 5 4 5 5 4 2 5 9 10 9 9 7 1 2 4 3 2 2 5 3 0 1 4 0 4 9 7 8 14 16 15 13 13 16 17 18
17 16 17 16 16 19 15 6 2 6 12 5 6 4 3 9 6 5 2 2 1 3 1 2 2 3 3 4 7 5 3 3 5 6 11 14 12 7 4 3 1 5 7 6 3 3 3 4 7 6 5 6 6 4 5 6 4 3 3 9 12 11 8 5 4 3 3 2 1 1 4 3 1 3 4 1 4 8 8 11 14 14 15 15 14 16 17 17
17 16 16 15 15 16 9 3 7 10 6 3 5 3 8 10 2 7 2 2 1 2 1 0 1 3 2 4 7 4 2 1 0 6 8 10 8 2 4 7 2 2 5 4 2 2 2 5 5 5 5 6 5 4 6 9 5 1 1 5 7 8 7 7 7 6 3 3 1 1 3 4 4 4 2 1 6 8 10 13 14 13 15 16 16 16 17 17
17 16 16 15 14 12 7 8 11 7 3 2 2 7 10 5 5 6 1 1 0 1 2 0 1 4 1 2 6 3 1 2 0 2 2 5 5 1 3 8 6 6 6 5 5 2 3 6 7 7 5 4 5 4 7 11 6 2 3 4 5 5 6 7 6 5 2 2 4 3 3 4 4 3 2 1 5 8 9 11 12 13 15 16 16 16 17 16
17 16 15 15 14 12 9 9 9 6 4 3 6 11 8 3 6 2 1 1 0 2 1 1 3 2 2 3 5 5 3 2 1 1 1 5 4 1 2 5 6 7 5 4 5 1 1 5 7 8 6 6 7 4 9 13 6 1 6 5 3 3 3 4 4 3 3 3 6 3 5 4 4 2 2 1 3 5 4 5 8 10 13 15 16 15 14 13
17 16 15 15 14 10 6 9 12 9 6 6 10 11 2 6 3 1 1 1 1 1 0 0 1 1 1 1 4 5 4 3 1 2 2 3 2 2 1 2 4 5 2 1 3 1 1 1 2 4 5 5 5 3 7 10 5 4 6 4 3 3 2 2 1 1 3 5 3 4 6 5 3 2 3 1 1 4 4 4 4 7 10 13 13 13 12 11
18 17 15 14 11 7 4 6 7 4 3 7 11 6 2 3 1 1 2 1 2 2 2 2 1 1 2 2 2 2 4 3 2 6 4 3 3 2 3 3 3 3 2 1 2 1 1 0 1 3 3 2 3 3 3 4 3 2 2 2 2 2 1 2 1 1 4 5 0 2 4 5 5 3 0 2 3 5 6 7 7 7 9 10 10 9 10 10
19 18 17 15 12 11 9 6 3 2 4 10 10 2 2 1 1 2 1 2 1 2 2 2 3 4 4 3 2 1 3 3 4 7 6 4 6 5 3 4 4 2 2 3 2 0 2 4 3 2 2 4 4 3 2 2 3 3 2 2 2 1 1 2 2 2 4 4 1 1 2 3 6 4 3 4 5 7 7 8 9 9 8 8 9 8 8 8
21 20 19 15 13 16 14 10 8 9 9 9 4 1 3 1 2 1 2 2 1 2 2 2 5 7 6 3 1 2 1 2 4 6 4 2 5 5 1 1 4 3 1 2 2 1 3 3 2 2 2 5 7 6 3 3 5 6 5 4 4 3 2 2 2 1 4 3 2 2 2 2 4 1 5 6 6 8 9 9 9 8 7 7 7 6 6 8
23 20 16 12 12 15 13 10 9 7 6 4 1 2 2 2 1 0 1 2 1 2 3 2 6 7 2 0 2 2 0 1 2 6 6 3 4 4 1 1 2 2 2 2 2 3 3 2 4 5 1 5 11 9 4 3 5 6 4 3 3 3 2 3 3 4 5 2 2 2 3 3 2 1 4 6 6 7 7 7 3 3 3 2 4 6 7 7
21 15 12 9 9 10 10 11 10 5 3 1 2 2 2 2 1 1 0 2 2 3 5 3 3 3 1 1 3 3 1 0 1 4 5 4 5 5 4 4 4 2 2 3 1 1 2 4 4 2 0 6 10 6 3 5 3 2 2 2 2 3 2 0 0 1 2 1 1 2 2 2 1 1 4 5 7 9 9 10 8 4 4 6 6 7 8 8
16 9 6 5 4 4 5 9 11 7 3 1 3 2 1 1 1 2 1 1 1 4 7 4 1 1 2 2 2 3 2 1 2 2 2 2 3 4 3 3 5 5 4 4 2 1 1 2 2 1 1 5 5 4 5 3 3 3 3 4 1 0 2 2 1 2 1 3 1 1 2 2 1 1 3 6 10 13 12 12 12 9 8 7 4 4 4 5
12 6 2 3 3 1 1 8 12 8 2 2 2 1 1 1 1 2 0 2 2 2 3 2 1 2 2 2 2 4 4 1 1 1 2 2 1 4 4 2 4 8 7 3 2 2 2 2 1 1 3 2 2 2 3 0 2 4 3 4 3 1 1 1 1 1 0 4 1 1 2 2 2 2 3 7 11 12 12 12 13 12 11 9 7 7 7 7
9 5 2 4 4 3 6 10 11 6 2 2 1 0 1 1 1 2 1 1 1 0 1 1 1 2 2 1 2 3 4 1 1 1 2 2 1 3 4 3 5 8 6 4 2 1 2 2 2 2 2 1 1 2 3 2 0 0 1 3 3 2 2 2 2 2 2 3 1 1 1 2 3 1 3 6 9 10 10 12 13 12 11 9 8 8 9 8
5 2 1 5 3 6 9 8 6 2 2 1 1 0 1 1 2 3 2 0 0 1 1 1 1 1 1 2 2 2 3 1 0 1 1 2 1 2 1 1 4 3 2 6 5 1 1 2 2 1 1 1 1 2 2 3 2 1 1 2 0 1 2 2 1 1 2 3 1 1 1 1 1 1 3 5 7 6 8 10 11 11 10 10 9 8 8 7
2 1 2 5 2 9 7 4 1 2 2 1 1 1 1 1 2 3 3 1 1 1 1 1 1 1 2 2 2 2 2 1 1 1 1 2 2 1 1 1 1 1 0 5 5 1 2 2 2 1 2 3 1 0 1 2 3 2 4 4 2 1 0 1 1 1 1 2 2 2 3 1 2 1 2 4 5 3 6 8 8 9 8 8 7 5 7 9
1 2 2 4 4 9 3 1 1 2 1 0 0 1 0 1 2 3 2 1 2 2 1 1 2 2 2 2 2 1 2 2 1 1 1 2 2 1 1 1 1 1 2 4 3 1 1 2 2 1 2 2 0 1 1 1 1 1 3 4 3 3 2 3 3 1 1 1 1 2 2 1 2 1 1 3 3 2 7 8 7 6 6 6 4 3 5 7
0 2 3 2 6 6 0 1 1 1 1 1 1 1 1 2 1 2 2 0 2 2 1 1 3 3 3 2 2 2 2 2 1 1 1 1 1 1 1 1 2 1 2 3 2 1 1 2 1 2 2 2 2 1 0 1 1 2 1 0 1 1 2 4 5 3 2 1 1 1 1 0 1 1 2 2 2 5 7 8 8 7 6 7 6 4 5 7
2 1 3 2 5 1 3 1 1 1 0 1 2 1 1 1 1 1 2 1 1 1 0 1 2 2 2 2 2 2 2 2 1 1 1 0 0 1 2 2 3 2 1 1 2 1 1 1 1 1 1 2 2 1 1 1 2 2 3 3 1 1 1 1 2 1 3 3 2 2 2 1 1 1 2 3 5 8 6 6 9 8 8 8 8 7 7 8
2 1 2 3 3 3 2 1 0 1 0 2 2 1 1 1 2 2 2 2 1 1 1 2 1 1 1 1 2 2 2 2 1 1 0 1 1 2 5 5 2 2 0 1 2 1 1 0 1 2 2 1 1 2 3 2 1 1 2 3 3 2 1 1 1 1 3 2 1 3 3 1 1 2 4 4 6 8 7 7 7 7 7 7 8 9 9 9
1 1 1 0 1 2 1 1 0 1 0 1 2 2 2 1 2 2 2 2 1 0 1 2 1 1 2 2 2 2 2 1 1 1 1 1 2 3 7 9 5 1 2 4 5 2 1 1 0 2 4 4 3 2 2 1 1 1 2 5 7 6 3 1 1 2 4 2 2 3 1 2 2 4 6 6 7 9 9 9 9 9 8 8 8 9 9 9
2 1 1 1 2 2 1 0 1 1 1 0 0 1 1 1 2 1 2 2 1 1 1 2 2 1 1 2 1 1 2 1 1 2 2 2 2 3 6 10 7 3 5 10 8 3 2 3 2 1 2 2 1 1 1 1 1 1 4 7 8 7 4 2 2 2 2 4 3 1 3 7 6 5 6 6 8 9 8 9 9 9 8 9 9 9 9 9
1 1 1 1 0 1 1 1 1 1 1 1 0 2 2 2 3 1 1 1 1 1 1 0 2 2 2 3 1 0 2 3 2 3 3 3 2 3 8 8 7 8 6 5 6 3 4 3 2 4 5 3 1 1 1 2 3 3 5 7 8 9 5 1 1 1 1 3 3 2 7 9 6 6 7 7 8 8 8 8 8 7 7 8 9 10 11 10
1 1 1 0 0 1 1 0 0 2 2 0 0 1 2 2 3 1 0 1 1 1 1 1 3 4 2 2 1 0 2 2 3 3 4 4 3 3 6 7 7 12 11 3 3 2 4 3 1 1 5 5 4 4 5 6 6 7 8 8 9 10 7 5 3 4 4 1 2 7 10 8 5 6 7 7 7 8 8 8 7 8 8 8 9 11 12 11
1 2 0 2 1 1 0 0 1 2 2 0 0 1 1 2 3 1 1 1 2 2 1 1 4 6 4 1 2 1 2 1 2 3 3 4 4 3 3 4 5 9 9 2 2 1 2 3 1 3 4 6 5 4 6 7 7 9 10 10 9 9 9 9 7 6 6 5 6 10 11 8 5 5 7 7 7 8 8 8 9 9 9 9 10 11 12 12
0 2 0 1 2 1 0 1 1 2 1 1 0 0 1 0 2 2 1 1 1 2 2 2 3 5 4 3 2 3 3 2 1 2 1 2 4 3 1 1 2 6 8 3 1 0 1 2 1 1 3 3 5 4 5 7 8 10 12 12 10 9 9 8 7 7 7 7 9 10 10 6 4 5 7 7 8 9 9 10 10 9 9 10 11 11 11 12
1 1 1 3 2 2 1 1 1 1 1 1 0 1 1 0 1 2 2 2 1 1 2 2 1 1 2 4 3 3 3 2 2 2 1 1 2 2 1 0 3 5 7 3 1 1 1 3 2 1 2 1 3 4 3 3 6 8 11 13 12 8 6 5 5 4 4 4 8 8 5 3 3 5 7 8 9 11 11 11 10 9 9 11 11 11 11 11
1 1 1 3 2 2 1 1 1 0 1 0 1 1 1 1 1 1 1 1 2 2 1 1 1 1 1 3 2 0 2 4 6 4 2 3 1 1 1 1 1 4 6 3 2 1 1 4 4 2 3 2 2 4 2 0 2 2 6 8 9 7 4 2 3 5 6 2 4 4 3 4 5 6 7 9 10 11 11 10 9 9 10 11 12 12 12 11
Wind_Direction
354 354 353 353 352 352 352 351 351 351 352 352 352 354 353 353 350 349 349 348 347 344 344 343 341 340 336 333 330 329 326 319 315 305 274 290 342 294 270 248 178 168 155 154 153 138 121 121 120 127 130 109 38 146 154 294 118 197 182 193 234 211 172 184 192 192 182 336 336 337 348 358 342 348 56 127 76 107 112 21 54 29 27 111 113 128 141 149
353 355 354 352 352 351 351 351 351 351 350 350 350 351 351 350 349 348 348 347 346 345 345 343 341 341 339 339 336 329 325 320 309 286 262 1 11 321 240 170 173 167 155 158 159 145 131 132 139 141 127 116 151 136 171 180 190 200 134 222 233 155 156 191 204 240 300 320 330 327 337 3 329 331 299 256 216 164 152 146 144 91 92 111 126 138 145 151
353 355 354 353 353 351 350 350 350 351 349 349 348 348 349 348 348 347 346 346 346 346 344 343 341 341 345 345 337 329 326 321 311 278 298 13 4 333 186 164 170 166 161 167 166 160 151 148 150 140 110 130 132 159 169 158 206 182 192 233 210 133 220 201 230 266 274 301 321 320 325 322 306 297 282 273 207 199 197 179 168 170 163 147 148 149 152 158
354 354 354 353 352 350 349 348 348 348 347 347 346 347 346 345 346 344 345 345 344 345 344 343 340 343 352 351 338 335 330 321 339 16 346 351 355 349 171 166 168 161 158 165 164 166 153 142 142 122 115 134 96 168 170 178 196 169 217 225 119 129 249 197 243 274 275 277 313 311 310 310 311 266 265 243 210 223 215 199 193 192 174 160 161 159 160 165
353 353 354 354 352 350 347 346 346 345 344 346 345 343 343 343 343 342 343 344 345 346 345 342 340 345 356 356 345 338 335 53 122 330 330 339 346 357 163 165 167 154 146 157 145 142 141 134 131 105 109 136 143 163 179 197 177 195 229 155 119 238 299 294 278 276 277 294 302 301 308 316 316 273 251 234 247 257 223 205 199 196 180 170 167 164 165 170
351 352 352 352 352 349 347 345 343 342 342 345 343 341 340 340 341 342 342 344 345 343 345 344 340 347 0 359 349 349 348 282 322 324 322 330 344 150 157 162 165 153 144 151 133 132 133 126 148 146 135 135 161 165 169 192 194 233 237 139 182 237 279 278 278 275 295 302 290 299 316 318 307 300 268 225 244 260 346 206 192 188 186 178 168 167 170 172
348 350 350 351 350 348 347 344 341 341 340 342 341 339 337 338 338 339 339 340 343 341 342 342 340 349 5 360 351 25 31 269 308 324 317 325 28 152 153 157 164 157 149 146 130 135 135 138 160 153 149 135 171 177 161 179 211 241 242 20 238 206 241 259 267 279 293 269 273 296 313 297 288 310 327 247 251 239 232 194 180 176 178 178 172 171 171 168
345 347 348 349 347 346 345 341 341 339 337 340 338 336 335 335 335 334 335 336 338 336 336 340 342 350 7 13 12 360 238 260 322 333 327 360 146 156 151 154 165 161 156 154 143 146 143 154 163 153 169 153 180 177 158 179 208 239 241 293 272 234 246 263 272 274 272 261 267 275 281 275 264 292 307 283 261 167 162 158 161 165 175 180 175 169 165 159
344 346 346 346 346 344 341 339 341 338 338 338 334 333 332 332 334 334 333 331 332 330 332 340 339 348 8 30 57 327 253 292 1 19 26 109 157 157 150 156 168 164 159 160 154 154 155 169 173 181 190 140 174 175 165 198 205 229 230 245 260 268 269 269 273 268 270 265 242 255 272 269 266 292 278 273 160 151 140 144 155 164 177 178 169 161 155 147
344 345 344 345 345 342 340 340 339 337 337 334 331 332 330 335 339 335 329 323 324 321 326 336 331 345 17 47 85 324 281 15 43 51 48 109 161 159 155 160 169 167 155 153 162 165 165 182 177 194 181 128 169 169 165 201 198 184 209 243 251 272 284 262 272 271 288 272 223 242 276 283 317 285 250 133 143 159 141 146 159 167 177 170 154 144 140 130
342 343 343 343 343 341 341 340 338 336 334 332 331 331 331 337 336 326 320 315 312 310 316 330 328 347 71 69 127 255 250 162 104 64 64 98 153 163 163 165 172 173 157 147 181 183 179 182 174 168 170 151 161 162 189 208 313 205 212 271 255 278 274 236 263 272 290 271 215 210 262 291 294 246 260 146 159 165 147 153 164 168 171 159 146 128 117 108
341 341 341 341 341 341 340 339 337 335 332 331 330 331 333 334 327 317 310 306 302 296 293 305 322 61 100 54 222 233 234 200 193 134 121 116 138 164 191 209 193 188 173 163 198 198 200 189 176 166 127 160 154 154 200 193 289 267 241 283 282 324 294 236 254 274 272 257 182 178 251 263 225 232 348 161 169 166 154 159 166 169 166 155 145 121 113 119
340 340 340 340 340 339 339 337 336 334 332 330 329 332 333 329 321 313 306 300 292 278 264 231 262 116 106 249 230 231 239 235 236 223 213 206 206 241 260 241 224 214 196 182 177 197 207 198 181 184 153 170 158 134 153 132 273 259 144 264 305 321 301 297 272 308 269 242 145 187 261 252 227 255 332 184 176 170 162 165 171 168 163 154 141 126 135 158
340 340 340 339 338 337 337 336 336 334 331 330 329 330 331 326 318 312 306 296 279 250 205 163 189 138 128 259 266 270 253 242 244 242 240 239 242 258 238 211 216 214 208 198 156 191 211 199 183 192 178 202 202 167 158 39 357 295 186 167 350 288 290 2 317 316 303 285 121 204 246 276 270 315 168 187 184 183 175 170 173 169 166 158 137 141 167 186
339 339 339 338 336 334 335 336 336 333 331 331 330 331 330 325 322 319 308 292 265 169 158 156 167 133 146 275 284 288 253 235 243 250 253 240 222 218 206 194 200 204 204 204 188 50 184 184 184 188 180 290 244 267 321 18 49 12 257 194 65 232 305 338 334 17 350 14 60 206 238 285 292 338 164 182 191 199 195 178 174 172 168 157 142 157 186 197
336 336 337 337 333 333 335 336 336 332 331 331 331 333 331 332 341 336 327 106 109 130 143 146 153 152 261 282 323 314 256 238 258 268 258 227 210 192 174 171 170 188 197 208 204 103 136 163 163 128 186 229 211 14 12 254 100 47 281 232 32 198 294 332 113 67 342 345 18 310 280 291 290 340 199 184 193 200 204 194 182 177 166 156 157 169 199 199
335 335 336 335 333 334 334 334 334 332 331 333 334 335 338 4 17 14 67 102 109 123 130 121 135 175 265 242 255 283 262 248 313 347 8 221 204 176 144 140 134 164 172 165 180 156 131 156 163 107 63 60 145 133 205 233 226 171 255 230 260 203 236 311 197 74 7 8 14 9 292 277 286 313 221 192 196 198 203 203 192 187 174 162 166 177 207 205
334 334 334 333 332 332 333 333 333 332 331 333 335 337 21 65 55 68 96 106 106 117 123 99 131 208 255 218 250 279 261 300 316 306 288 212 185 172 146 130 128 137 138 100 139 165 159 166 191 158 155 151 165 186 202 219 211 188 194 210 236 196 192 294 272 330 1 351 329 326 282 272 284 281 225 201 199 206 210 209 201 198 190 176 175 182 204 219
333 333 333 331 331 331 332 333 333 333 331 333 339 350 99 83 88 108 107 109 119 148 169 158 181 230 356 251 276 300 309 308 306 289 216 162 165 164 133 123 129 129 145 157 158 183 172 128 153 193 192 179 177 193 206 188 140 145 158 217 244 255 232 264 286 296 343 328 304 297 282 280 283 244 220 208 203 211 215 215 212 209 203 190 183 187 199 221
333 332 331 330 330 330 331 332 331 330 328 330 340 14 131 74 102 154 126 201 217 243 307 185 194 264 298 257 281 315 310 308 304 193 159 156 154 149 120 113 127 130 155 164 160 165 178 180 194 199 173 163 181 194 197 164 127 132 180 244 240 252 268 250 270 272 292 301 287 274 266 270 271 250 224 214 207 213 214 213 217 215 211 201 188 192 200 217
331 331 329 329 329 329 330 330 328 327 325 322 322 300 249 160 55 332 288 249 235 237 253 226 203 242 254 254 25 24 9 316 286 191 165 151 148 152 155 142 154 165 162 131 124 106 193 209 202 178 161 159 176 174 159 142 149 211 236 266 265 237 261 245 261 280 248 243 261 248 266 267 267 255 229 219 209 216 215 210 217 218 217 210 195 194 202 215
330 329 328 328 328 328 329 329 326 324 324 319 297 288 254 138 20 292 283 283 268 229 238 240 235 254 259 296 289 330 18 274 263 231 175 153 160 176 155 147 174 175 131 124 132 129 201 219 196 170 158 115 91 130 149 153 173 206 218 267 272 232 266 249 255 292 228 221 254 273 281 277 277 268 225 220 213 217 215 207 212 214 214 213 201 198 200 207
329 327 328 327 328 327 327 327 325 321 341 357 304 271 193 25 326 270 237 286 288 246 226 219 231 254 255 258 223 190 200 231 243 240 179 164 172 177 154 162 175 152 147 179 183 174 197 230 186 165 150 124 103 128 144 144 180 199 206 246 258 146 158 249 236 312 208 232 274 285 293 281 279 279 234 232 226 232 225 211 216 216 214 212 201 199 199 202
327 327 327 326 327 326 324 325 323 306 327 315 298 235 171 347 339 266 202 269 283 281 228 200 211 238 235 233 183 174 190 204 206 224 174 164 142 150 169 163 152 159 188 187 184 192 204 195 131 138 156 160 143 133 156 186 225 211 217 236 250 207 214 233 256 327 266 247 246 261 275 267 266 264 237 252 256 258 251 222 226 226 225 219 202 202 204 206
327 327 326 327 328 326 325 328 327 251 316 310 265 166 188 327 339 188 192 314 273 279 254 183 201 226 222 184 168 178 187 199 219 210 168 169 151 141 167 146 162 191 188 161 161 207 218 165 133 136 163 177 164 170 185 201 232 240 217 221 230 227 218 214 203 322 281 247 164 233 259 244 203 250 223 265 288 259 247 228 228 226 224 219 207 207 210 210
326 324 325 327 328 330 334 338 340 322 316 292 174 169 318 327 325 182 183 5 272 280 338 166 204 202 194 149 159 181 172 210 231 188 178 179 158 141 152 141 210 199 165 143 155 228 218 164 163 161 163 173 183 209 196 186 217 271 222 209 218 224 217 188 170 204 257 267 101 290 271 267 294 263 226 211 277 259 242 230 229 226 221 216 213 214 214 212
324 323 325 325 329 339 345 315 316 319 306 188 185 262 322 328 283 179 204 11 272 271 119 214 236 176 198 166 165 176 171 299 287 172 192 186 162 145 167 162 169 160 138 137 193 221 151 152 167 167 160 169 195 224 192 177 192 249 183 184 194 204 205 184 182 206 249 307 285 197 245 268 275 258 214 238 265 252 235 228 224 223 222 219 217 217 217 214
321 321 321 320 325 329 311 291 305 293 221 176 268 309 326 322 170 173 280 61 299 326 102 63 150 148 66 138 183 217 289 334 49 164 202 185 177 25 184 185 175 156 149 167 200 191 135 172 177 167 165 186 210 212 172 173 202 247 158 157 175 186 192 178 183 212 226 295 263 187 169 243 258 229 176 218 255 243 232 226 222 221 223 222 221 220 221 219
319 319 316 318 318 312 292 271 266 249 257 312 320 325 328 179 162 147 41 138 266 19 88 143 135 129 57 127 212 254 302 321 332 42 134 177 197 12 184 190 150 143 157 194 212 168 109 202 188 168 176 205 214 192 162 177 205 192 135 124 111 122 133 159 188 201 165 244 258 182 167 240 268 234 212 217 254 260 255 233 226 226 228 227 226 226 226 223
317 314 313 317 313 313 303 259 253 257 275 305 324 328 327 154 155 46 111 224 302 19 15 197 109 345 20 155 230 241 241 275 34 104 131 158 176 32 83 108 102 131 150 271 247 205 41 238 171 178 195 208 208 170 164 182 179 106 130 126 95 103 100 128 166 167 192 240 258 166 184 233 272 248 224 222 310 327 329 301 258 238 235 233 232 232 229 226
313 311 311 310 302 301 300 268 266 250 255 313 330 329 158 136 36 115 152 261 306 350 355 358 341 329 355 311 276 219 213 238 139 145 154 161 156 119 127 130 102 118 148 249 250 273 326 251 193 215 198 164 172 160 156 189 179 110 138 151 125 132 127 134 132 158 227 246 312 131 193 217 243 249 77 41 360 344 321 304 293 264 242 235 234 235 228 217
311 309 304 295 278 258 246 248 267 261 302 324 330 326 152 158 247 168 265 291 319 358 358 341 309 314 329 306 251 210 191 181 170 164 157 168 173 165 165 163 155 148 184 218 209 327 266 231 245 275 213 180 188 188 134 149 189 192 183 185 195 185 152 198 204 193 242 251 111 136 174 208 247 269 30 17 341 330 312 293 286 275 255 234 225 224 214 192
311 308 302 289 263 246 242 250 263 274 299 317 324 57 89 110 214 211 316 324 59 3 333 304 306 302 301 303 287 271 208 156 175 170 144 138 173 172 71 69 158 160 145 193 185 208 233 240 230 244 244 192 191 210 201 166 181 185 179 184 189 170 157 204 203 226 261 267 72 130 168 229 253 295 23 357 340 335 327 306 281 266 260 241 216 200 184 170
313 311 304 289 260 252 251 247 248 263 297 314 61 89 112 158 224 172 4 322 312 330 317 304 309 301 280 336 337 333 165 149 154 156 147 131 162 184 185 145 177 137 93 151 167 194 217 259 196 189 201 173 188 212 213 134 158 175 168 178 195 190 189 213 211 231 254 248 75 120 174 229 235 68 359 341 350 355 358 358 331 247 240 202 168 160 159 156
320 316 304 287 267 266 258 233 223 230 277 343 82 100 153 188 246 141 95 292 298 323 311 298 301 302 342 349 322 351 37 312 91 143 158 157 168 184 187 190 191 152 134 173 190 170 212 272 237 211 10 173 186 195 134 120 147 160 146 172 226 222 181 144 239 229 273 254 134 169 219 266 245 355 356 10 23 21 27 39 47 72 113 120 138 159 162 154
328 327 308 293 277 290 265 214 203 206 219 91 95 124 187 218 220 151 124 303 318 324 314 315 360 5 350 334 319 349 342 6 84 146 171 170 180 176 180 192 182 178 174 173 188 164 186 269 267 331 249 198 198 175 162 191 177 136 179 192 191 250 144 122 108 75 346 257 228 167 254 291 222 195 32 42 41 36 35 44 48 50 73 88 91 114 127 121
336 349 3 352 342 342 166 170 173 179 167 91 114 169 234 227 191 182 299 326 301 321 332 337 8 22 358 326 317 332 326 12 81 221 169 165 203 169 182 202 173 191 200 185 213 213 213 266 262 218 211 212 285 166 138 343 137 142 194 179 126 74 94 114 209 103 200 243 238 124 263 293 239 203 49 41 41 41 40 49 54 49 56 61 52 54 54 54
331 341 8 8 18 115 132 143 156 160 103 78 115 231 244 189 193 229 273 346 288 329 20 274 310 11 19 316 303 322 322 350 30 313 156 178 255 157 167 191 181 198 201 177 203 217 202 266 281 231 220 36 352 176 128 76 49 139 191 141 135 211 194 146 204 203 216 237 234 169 257 269 242 242 41 37 36 44 52 57 60 60 65 68 60 58 58 61
321 331 25 6 32 136 134 135 149 121 71 111 200 220 226 231 254 238 224 329 164 124 317 246 251 345 341 305 287 306 321 336 40 320 157 182 250 153 149 211 184 196 188 175 187 156 142 252 262 180 252 344 19 209 179 159 149 73 141 145 63 274 212 180 182 211 234 230 214 216 244 224 204 8 13 11 18 46 73 73 71 71 74 80 81 82 86 97
327 158 32 360 100 150 140 132 115 34 83 165 221 152 204 261 281 257 229 233 222 209 268 236 208 297 294 295 279 274 309 304 227 276 212 178 187 170 355 323 174 80 127 190 194 109 98 229 247 228 269 269 228 297 260 189 169 170 178 178 170 119 52 202 147 49 266 211 167 222 243 133 82 360 333 350 359 48 96 95 95 92 90 92 97 113 122 130
333 136 26 355 150 157 155 50 42 41 99 156 222 168 285 325 314 297 278 206 212 234 261 233 240 272 278 288 283 251 285 294 231 246 241 187 184 184 39 360 231 125 126 168 185 180 150 178 213 262 290 283 318 30 325 241 191 180 206 201 177 152 157 197 197 149 302 241 164 217 243 88 82 303 322 359 357 94 109 111 118 120 123 120 123 143 126 124
132 126 344 327 157 155 12 24 57 17 148 47 335 229 314 335 310 301 318 330 216 231 267 244 246 247 236 249 269 254 269 284 256 267 265 201 207 226 63 5 287 183 150 163 166 167 138 122 168 224 276 288 289 325 287 240 116 96 105 344 112 154 180 217 222 184 153 185 99 180 251 85 77 37 51 35 65 112 122 129 131 130 133 130 126 118 98 92
131 81 359 149 155 102 1 98 25 352 155 348 326 238 255 299 272 289 324 338 272 246 280 246 241 237 230 246 276 273 278 275 255 274 299 308 196 299 355 333 257 212 142 145 117 110 136 122 147 186 273 308 281 194 153 177 152 110 63 45 34 287 295 255 244 169 165 166 138 199 215 130 69 101 91 65 91 109 112 112 119 122 119 113 100 79 63 60
134 68 57 146 187 319 349 143 57 4 307 336 348 337 292 251 238 274 301 309 320 353 314 274 252 282 284 278 280 287 296 286 290 360 15 61 37 358 11 1 277 231 60 145 132 136 230 193 136 154 148 132 156 195 192 168 105 69 47 27 15 8 4 180 115 131 199 178 161 219 204 101 40 109 108 101 100 94 70 61 80 90 86 78 67 58 49 46
118 85 52 75 321 345 58 150 138 140 280 349 360 352 348 277 243 260 269 277 277 244 275 286 288 287 294 295 273 284 299 269 300 350 39 44 358 354 8 4 350 284 131 113 111 129 154 35 126 188 187 177 168 189 197 156 9 4 24 16 17 20 356 279 152 189 218 173 157 233 188 123 144 112 103 103 93 76 59 56 57 57 57 53 53 55 50 44
128 108 12 350 17 51 79 41 93 132 152 129 38 355 2 334 311 277 210 234 272 279 286 305 313 290 307 335 312 318 347 320 311 11 27 9 352 342 348 356 9 39 92 94 91 104 102 53 20 78 139 182 164 121 360 357 337 324 359 7 10 5 337 277 186 199 197 155 164 272 112 133 140 105 82 77 75 69 62 59 57 54 53 55 58 57 54 49
114 121 134 149 54 49 57 42 57 88 126 185 15 2 340 330 333 317 184 213 267 290 244 40 24 17 347 331 323 345 344 345 10 18 8 346 329 343 342 349 15 4 359 71 82 83 99 74 360 44 67 63 44 50 33 59 81 58 16 11 10 3 351 260 195 344 341 166 183 168 140 136 113 61 50 54 66 71 65 61 63 63 60 64 67 62 57 51
51 143 146 310 160 123 87 75 102 105 109 144 351 360 348 356 359 349 301 309 319 333 253 123 30 14 341 288 261 359 345 11 31 11 358 350 348 19 351 332 357 355 337 349 70 79 109 112 257 86 78 68 60 75 93 94 87 69 49 33 21 18 31 61 51 357 337 300 165 153 144 122 73 47 39 39 56 69 71 70 74 76 73 74 73 66 59 51
38 128 36 349 110 140 132 131 120 113 101 24 351 19 347 2 355 337 244 301 347 360 357 36 4 354 348 291 207 76 2 28 56 19 7 357 353 50 23 311 345 354 333 331 65 79 116 99 168 152 91 57 43 69 105 112 94 68 52 38 32 39 53 62 52 27 31 65 104 120 114 86 53 49 47 48 60 70 75 74 69 67 68 71 71 70 66 60
104 147 127 59 94 81 85 81 60 106 85 347 28 63 260 275 345 336 258 230 9 358 358 41 10 339 356 20 89 79 31 360 37 27 46 358 354 32 46 305 355 336 310 301 58 293 141 116 146 130 101 58 28 43 98 113 103 76 50 31 27 37 46 47 36 22 41 80 103 106 98 79 56 62 67 70 70 67 65 63 61 59 60 67 70 67 64 64
78 106 131 120 92 360 360 62 36 107 69 360 15 360 326 338 352 323 268 224 214 302 334 37 23 310 15 21 37 78 36 332 307 310 183 156 358 360 255 335 29 330 303 305 37 354 73 132 148 111 133 112 16 16 48 102 111 82 45 20 11 16 26 29 26 14 21 92 122 118 100 95 104 92 79 73 71 70 65 60 61 61 59 63 66 62 60 61
106 62 74 109 87 346 339 82 61 95 88 358 249 284 300 305 340 314 293 268 234 240 247 221 206 176 31 343 319 330 338 304 285 276 204 158 168 200 206 234 237 258 277 317 15 360 111 141 148 147 156 146 11 346 342 196 167 99 28 357 350 360 360 351 26 20 1 9 146 142 115 113 124 111 90 78 74 74 70 62 59 63 65 65 64 62 61 59